Regional Weather Roundup
Issued by NWS Newport/Morehead, NC

Current Version | Previous Version | Graphics & Text | Print | Product List | Glossary Off
Versions: 1 2 3 4 5 6 7 8 9 10 11 12 13 14 15 16 17 18 19 20 21 22 23 24 25 26 27 28 29 30 31 32 33 34 35 36 37 38 39 40 41 42 43 44 45 46 47 48 49 50

000
ASUS42 KMHX 300613
RWRMHX
WEATHER ROUNDUP FOR EASTERN NORTH CAROLINA
NATIONAL WEATHER SERVICE NEWPORT/MOREHEAD CITY NC
200 AM EDT TUE AUG 30 2016

NOTE: "FAIR" INDICATES FEW OR NO CLOUDS BELOW 12,000 FEET
WITH NO SIGNIFICANT WEATHER AND/OR OBSTRUCTIONS TO VISIBILITY

NCZ015>017-031-032-045>047-102-103-300700-
NORTH COAST

CITY           SKY/WX    TMP DP  RH WIND       PRES   REMARKS
EDENTON        CLEAR    N/A N/A N/A CALM      30.07F
ELIZABETH CITY CLEAR     74  71  91 N7        30.06F
KITTY HAWK     CLEAR     77  76  94 NE7       30.03F
MANTEO         CLEAR     77  74  91 NE10      30.04F

$$

NCZ045>047-081-094-103-104-300700-
CENTRAL COAST

CITY           SKY/WX    TMP DP  RH WIND       PRES   REMARKS
FRISCO         PTCLDY    80  77  90 NE7       30.01F

$$

NCZ095-097-098-100-101-300700-
SOUTHERN COAST

CITY           SKY/WX    TMP DP  RH WIND       PRES   REMARKS
BEAUFORT       CLEAR     76  73  91 N8        30.02F
CEDAR ISLAND   NOT AVBL
JACKSONVILLE   CLEAR     74  70  87 NW5       30.04F
PINEY ISLAND   NOT AVBL
WILMINGTON     CLEAR     73  72  96 N5        30.05S


$$

NCZ011>013-027>030-043-044-078>080-089-090>093-098-300700-
COASTAL PLAIN

CITY           SKY/WX    TMP DP  RH WIND       PRES   REMARKS
AHOSKIE        CLEAR     66  65  96 CALM      30.08F
CLINTON        CLEAR     73  73 100 CALM      30.08S
ELIZABETHTOWN  MOCLDY    73  73 100 CALM      30.07S
GOLDSBORO      CLEAR     74  74 100 N5        30.06F
GREENVILLE     CLEAR     70  68  94 CALM      30.09S
HAVELOCK       CLEAR     76  70  82 N7        30.04F
KENANSVILLE    CLEAR     72  72 100 CALM      30.07F
KINSTON        CLEAR     72  68  88 N5        30.07F
NEW BERN       PTCLDY    73  69  87 N6        30.06S
RICHLANDS      CLEAR     73  72  96 NW3       30.06F
ROCKY MOUNT    CLEAR     69  69 100 CALM      30.09S
WASHINGTON     CLEAR     69  67  95 N3        30.06F
WHITEVILLE     PTCLDY    73  71  93 CALM      30.06F

$$

AMZ130-135-150-152-154-156-158-170-250-252-270-ANZ085-086-088-633-658-670-300700-
MARINE OBSERVATIONS

STATION/POSITION TIME  TEMP    WIND        PRES    WAVE   SWELL
                       AIR SEA DIR/SP/G            HT/PER HT/PER
                 (UTC) (F)     (DEG/KT/KT) (MB)    (FT/S) (FT/S)
CHESAPEAKE LIGHT NOT AVBL
64 E VA BEACH    0550   80 80   60/ 12/ 12 1017.4    5/12   5/12
DUCK             0500   79 79   40/ 13/ 14 1017.4
2 E DUCK         0511      79                N/A     4/13   2/13
OREGON INLET     0500   79 83   30/ 10/ 14 1017.3
13E OREGON INLT  0600      80                N/A     5/ 7   3/ 7
HATTERAS CG      0500   80 84   40/  8/ 15 1016.6
DIAMOND BUOY     0550   83 84   50/ 16/ 17 1015.4    6/12   5/12
CAPE LOOKOUT     0600   79      10/ 11/ 13 1015.9
BEAUFORT LAB     0500   78 82   20/  7/ 10 1016.5
30 SE NEW RVR IN 0508   81 84   40/ 14/ 19 1016.6
30 SE NEW RVR IN 0555      84                N/A     5/13   2/13
27 SE WRIGHTSVLE 0508   82 84   20/ 14/ 17 1016.8
5 SE WRIGHTSVLE  0508   81 83   50/ 12/ 16 1018.2
225 S CAPE HAT   0550   83 84  220/ 12/ 14 1015.2    5/12   5/12
41 SE CHARLESTON 0550   83 85   50/  8/ 10 1016.1    4/12   3/12

$$




USA.gov is the U.S. government's official web portal to all federal, state and local government web resources and services.